[[{"header":{"parameterUnit":"m.s-1","parameterCategory":1,"la1":30.2991,"la2":30.254,"lo1":-89.0895,"lo2":-89.0444,"dy":0.0017,"dx":0.0017,"nx":28,"ny":28,"refTime":"2025-05-19T03:00:00:Z","depth":0,"parameterNumber":2,"parameterNumberName":"U-component_of_WINDS"},"data":[0,0,0,0,0,0,0,0,0,0,0,0,0,0,0,0,0,0,0,0,0,0,0,0,0,0,0,0,0,0,0,0,0,0,0,0,0,0,0,0,0,0,0,0,0,0,0,0,0,0,0,0,0,0,0,0,0,0,-0.1545,-0.1545,0,-0.1589,-0.159,-0.159,-0.1616,-0.1616,-0.1616,-0.1616,-0.166,-0.1662,-0.1663,0,0,0,0,0,0,0,0,0,0,0,0,0,-0.1481,-0.1482,-0.1545,-0.1545,-0.1546,-0.1589,-0.159,-0.159,-0.1616,-0.1616,-0.1616,-0.1616,-0.166,-0.1661,-0.1663,0,0,0,0,0,0,0,0,0,0,0,0,0,-0.1515,-0.1482,-0.1545,-0.1564,-0.1566,-0.1589,-0.159,-0.159,-0.1616,-0.1616,-0.1616,-0.1616,-0.166,-0.1661,-0.1663,-0.167,0,0,-0.1668,-0.1669,0,0,0,0,0,0,0,0,-0.1513,-0.1517,-0.156,-0.1562,-0.1565,-0.1597,-0.1584,-0.1617,-0.1616,-0.1597,-0.1616,-0.1616,-0.1639,-0.1643,-0.1651,-0.1672,-0.1674,-0.1668,-0.1669,-0.167,-0.167,0,0,0,0,0,0,0,-0.1511,-0.1516,-0.1562,-0.1561,-0.1564,-0.157,-0.1575,-0.159,-0.1617,-0.1598,-0.16,-0.1605,-0.164,-0.1649,-0.1652,-0.1675,-0.1668,-0.1669,-0.1671,-0.1671,-0.1704,-0.1704,0,0,0,0,0,0,-0.1505,-0.1514,-0.1561,-0.1564,-0.1539,-0.1571,-0.1576,-0.1587,-0.1616,-0.1621,-0.1605,-0.1606,-0.1646,-0.165,-0.1653,-0.1664,-0.167,-0.1671,-0.1672,-0.1705,-0.1704,-0.1704,0,0,0,0,0,0,-0.1504,-0.1509,-0.1559,-0.1539,-0.1546,-0.1572,-0.1583,-0.1587,-0.1596,-0.1622,-0.1626,-0.1609,-0.1646,-0.1651,-0.1666,-0.1666,-0.1672,-0.1674,-0.1705,-0.1705,-0.1704,-0.1685,0,0,0,0,0,0,-0.1502,-0.1509,-0.1512,-0.1539,-0.1547,-0.1571,-0.1583,-0.1588,-0.1599,-0.1601,-0.1626,-0.1631,-0.1647,-0.1663,-0.1667,-0.1668,-0.1675,-0.1705,-0.1705,-0.1704,-0.1685,-0.1684,-0.1682,0,0,0,0,0,-0.15,-0.1505,-0.1512,-0.1518,-0.1552,-0.1571,-0.1575,-0.1594,-0.1599,-0.1602,-0.1618,-0.163,-0.1665,-0.1665,-0.167,-0.1671,-0.1705,-0.1705,-0.1704,-0.1686,-0.1684,-0.1682,0,0,0,0,0,0,-0.1477,-0.1509,-0.1517,-0.1531,-0.1548,-0.1575,-0.158,-0.1591,-0.1607,-0.1608,-0.163,-0.1636,-0.1649,-0.1661,-0.166,-0.1679,-0.1686,-0.1687,-0.167,-0.1669,-0.1667,-0.1664,-0.1676,0,0,0,0,0,-0.1473,-0.1487,-0.1514,-0.1523,-0.1531,-0.1554,-0.1563,-0.1576,-0.1595,-0.1602,-0.1619,-0.1637,-0.1652,-0.1661,-0.1676,-0.1687,-0.1693,-0.169,-0.1689,-0.1688,-0.1688,-0.1694,-0.1694,-0.1704,-0.1704,-0.1704,0,0,-0.1466,-0.1485,-0.1492,-0.1519,-0.1534,-0.1547,-0.156,-0.1573,-0.1583,-0.1604,-0.1619,-0.1632,-0.1653,-0.1666,-0.1672,-0.1677,-0.1686,-0.1687,-0.1686,-0.1687,-0.1694,-0.1693,-0.1692,-0.1703,-0.1703,-0.1703,0,0,-0.1461,-0.1476,-0.1486,-0.15,-0.1523,-0.1538,-0.154,-0.1565,-0.1575,-0.1591,-0.1606,-0.1618,-0.1643,-0.1657,-0.1668,-0.1666,-0.1677,-0.1671,-0.1663,-0.1669,-0.1668,-0.1668,-0.1667,-0.1666,-0.1671,-0.1671,-0.1671,0,-0.1449,-0.147,-0.1489,-0.1502,-0.1513,-0.1532,-0.1542,-0.1555,-0.1581,-0.1588,-0.1592,-0.1624,-0.1639,-0.1656,-0.1655,-0.1663,-0.1666,-0.1668,-0.1667,-0.1666,-0.1666,-0.1666,-0.1665,-0.167,-0.167,-0.167,-0.167,0,-0.1454,-0.1468,-0.1473,-0.1498,-0.151,-0.152,-0.1542,-0.1551,-0.1562,-0.1577,-0.1592,-0.1611,-0.163,-0.1635,-0.1646,-0.1653,-0.1655,-0.1663,-0.167,-0.1664,-0.1664,-0.1664,-0.1668,-0.1669,-0.1669,-0.1669,0,0,-0.1436,-0.1471,-0.1472,-0.1483,-0.1509,-0.152,-0.1532,-0.1551,-0.1558,-0.1575,-0.1585,-0.1606,-0.1613,-0.1625,-0.1638,-0.1644,-0.1641,-0.1651,-0.1652,-0.1648,-0.1649,-0.1643,-0.1642,-0.1649,-0.1649,-0.1649,-0.1647,0,-0.1433,-0.1455,-0.1473,-0.1488,-0.1501,-0.152,-0.153,-0.1546,-0.156,-0.1573,-0.1588,-0.1602,-0.1611,-0.1618,-0.1624,-0.164,-0.1641,-0.164,-0.1658,-0.1658,-0.1652,-0.1642,-0.1636,-0.1634,-0.1647,-0.1647,-0.1647,0,-0.1434,-0.145,-0.1467,-0.1491,-0.1497,-0.1505,-0.1524,-0.1536,-0.1555,-0.1565,-0.1577,-0.1591,-0.1604,-0.161,-0.1627,-0.1626,-0.1634,-0.1643,-0.1643,-0.1646,-0.1652,-0.1644,-0.1633,-0.1633,-0.1648,-0.1648,-0.1647,0,-0.1418,-0.1444,-0.1458,-0.1467,-0.1495,-0.1501,-0.1513,-0.1532,-0.1542,-0.1558,-0.1565,-0.1582,-0.1591,-0.1604,-0.1622,-0.1625,-0.1637,-0.1645,-0.1645,-0.1645,-0.1647,-0.1647,-0.1637,-0.1652,-0.1652,-0.1652,-0.1652,0,-0.1414,-0.1423,-0.1451,-0.1459,-0.147,-0.149,-0.15,-0.1514,-0.153,-0.1541,-0.1558,-0.1568,-0.159,-0.1603,-0.1617,-0.1629,-0.1633,-0.1641,-0.1644,-0.1639,-0.1638,-0.1645,-0.1645,-0.1652,-0.1652,-0.1652,-0.1652,0,-0.1399,-0.1417,-0.1433,-0.1458,-0.1465,-0.1472,-0.1493,-0.1502,-0.1516,-0.153,-0.1534,-0.1556,-0.1572,-0.1591,-0.1612,-0.1621,-0.1632,-0.1637,-0.1626,-0.1628,-0.1627,-0.1626,-0.1621,-0.1621,-0.1636,-0.1636,-0.1636,0,-0.1395,-0.1402,-0.1428,-0.1437,-0.1448,-0.1462,-0.1472,-0.1492,-0.1502,-0.1524,-0.153,-0.1546,-0.1561,-0.1584,-0.1602,-0.1618,-0.1624,-0.1621,-0.1627,-0.1621,-0.1624,-0.1623,-0.1624,-0.162,-0.1619,-0.1619,-0.1619,0,-0.1385,-0.1394,-0.1409,-0.1426,-0.1438,-0.1453,-0.1468,-0.1474,-0.1497,-0.1507,-0.1523,-0.1534,-0.1556,-0.1572,-0.1591,-0.1603,-0.1615,-0.1617,-0.1618,-0.1613,-0.1606,-0.1609,-0.1622,-0.1617,-0.1617,-0.1618,-0.1618,-0.1618,-0.1376,-0.1383,-0.1402,-0.1418,-0.1431,-0.1445,-0.1454,-0.147,-0.1483,-0.1503,-0.1514,-0.1529,-0.1547,-0.1573,-0.1585,-0.1597,-0.1601,-0.1603,-0.1603,-0.1603,-0.1601,-0.1604,-0.1601,-0.1601,-0.1601,-0.1601,-0.1601,0,-0.1367,-0.138,-0.1394,-0.1415,-0.1427,-0.1437,-0.1455,-0.1464,-0.1477,-0.1494,-0.1507,-0.1525,-0.1541,-0.156,-0.1577,-0.1583,-0.1589,-0.1586,-0.1586,-0.1589,-0.1597,-0.1594,-0.1581,-0.1581,-0.1581,-0.1581,-0.1581,-0.1581,-0.1364,-0.1377,-0.1388,-0.1408,-0.1421,-0.1436,-0.1445,-0.1458,-0.1471,-0.1491,-0.1504,-0.1516,-0.1533,-0.1551,-0.1566,-0.1571,-0.1576,-0.1573,-0.1579,-0.1586,-0.1588,-0.159,-0.1588,-0.1574,-0.1574,-0.1571,-0.157,-0.157]},{"header":{"parameterUnit":"m.s-1","parameterCategory":1,"la1":30.2991,"la2":30.254,"lo1":-89.0895,"lo2":-89.0444,"dy":0.0017,"dx":0.0017,"nx":28,"ny":28,"refTime":"2025-05-19T03:00:00:Z","depth":0,"parameterNumber":3,"parameterNumberName":"V-component_of_WINDS"},"data":[0,0,0,0,0,0,0,0,0,0,0,0,0,0,0,0,0,0,0,0,0,0,0,0,0,0,0,0,0,0,0,0,0,0,0,0,0,0,0,0,0,0,0,0,0,0,0,0,0,0,0,0,0,0,0,0,0,0,6.6227,6.6226,0,6.6135,6.6134,6.6133,6.6061,6.606,6.606,6.6059,6.5958,6.5957,6.5954,0,0,0,0,0,0,0,0,0,0,0,0,0,6.6337,6.6336,6.6227,6.6226,6.6225,6.6135,6.6134,6.6133,6.6061,6.606,6.6059,6.6059,6.5959,6.5957,6.5954,0,0,0,0,0,0,0,0,0,0,0,0,0,6.6272,6.6335,6.6227,6.6178,6.6173,6.6136,6.6134,6.6132,6.6061,6.606,6.6059,6.6058,6.596,6.5957,6.5954,6.5956,0,0,6.5945,6.5943,0,0,0,0,0,0,0,0,6.6275,6.6268,6.6187,6.6182,6.6176,6.6109,6.6136,6.6073,6.6061,6.6103,6.6059,6.6058,6.6009,6.6002,6.5986,6.5951,6.5946,6.5944,6.5942,6.5941,6.594,0,0,0,0,0,0,0,6.628,6.6271,6.619,6.6186,6.6179,6.616,6.615,6.6124,6.6063,6.61,6.6094,6.6085,6.6006,6.599,6.5984,6.5945,6.5944,6.5942,6.594,6.5939,6.591,6.5911,0,0,0,0,0,0,6.6293,6.6275,6.6193,6.6188,6.6224,6.6159,6.6147,6.6131,6.6063,6.6052,6.6086,6.6082,6.5995,6.5987,6.598,6.598,6.5941,6.5938,6.5937,6.5909,6.591,6.5912,0,0,0,0,0,0,6.6296,6.6286,6.6197,6.623,6.6217,6.6158,6.614,6.613,6.6114,6.6052,6.6041,6.6081,6.5994,6.5984,6.5963,6.5975,6.5937,6.5934,6.5908,6.591,6.5911,6.5978,0,0,0,0,0,0,6.6299,6.6288,6.6288,6.6231,6.6216,6.6183,6.6141,6.6129,6.6109,6.6103,6.6045,6.6034,6.5993,6.5969,6.5961,6.597,6.5932,6.5907,6.5909,6.5911,6.5975,6.5982,6.5988,0,0,0,0,0,6.6303,6.6308,6.6288,6.6279,6.6215,6.6184,6.6175,6.6129,6.6111,6.611,6.6072,6.6036,6.5976,6.5967,6.5957,6.5966,6.5906,6.5908,6.591,6.5971,6.598,6.5988,0,0,0,0,0,0,6.6365,6.63,6.6277,6.6264,6.6231,6.6172,6.617,6.614,6.6109,6.6104,6.6047,6.6034,6.6021,6.5991,6.5983,6.5966,6.5936,6.5937,6.5986,6.5994,6.6,6.6007,6.5929,0,0,0,0,0,6.6378,6.6359,6.6302,6.6296,6.6281,6.6229,6.6213,6.6182,6.6144,6.6128,6.6088,6.6051,6.6024,6.6007,6.5979,6.5971,6.5958,6.5972,6.5979,6.5985,6.5986,6.5983,6.5989,6.592,6.592,6.592,0,0,6.6402,6.6364,6.6355,6.6308,6.6278,6.626,6.6217,6.6198,6.6184,6.6125,6.6104,6.6074,6.6029,6.6016,6.6008,6.5991,6.6003,6.5988,6.5993,6.5991,6.5986,6.5992,6.5998,6.5921,6.5921,6.5921,0,0,6.6438,6.6407,6.64,6.6373,6.633,6.6296,6.6295,6.6242,6.6221,6.62,6.6156,6.6138,6.6092,6.6063,6.6043,6.6074,6.604,6.6066,6.6101,6.6098,6.6104,6.6108,6.6121,6.6126,6.6067,6.6068,6.6068,0,6.6473,6.6445,6.64,6.6386,6.6367,6.6316,6.6309,6.6284,6.6233,6.6221,6.6204,6.6149,6.6114,6.6095,6.6104,6.6088,6.6086,6.6072,6.6107,6.6111,6.6115,6.6126,6.6131,6.6071,6.6071,6.607,6.607,0,6.6492,6.6474,6.6473,6.643,6.6411,6.64,6.6353,6.6339,6.631,6.6279,6.626,6.6218,6.6182,6.6175,6.6145,6.6153,6.6144,6.6118,6.6086,6.6126,6.6136,6.614,6.6076,6.6075,6.6074,6.6073,0,0,6.656,6.6496,6.6497,6.6478,6.643,6.6414,6.6402,6.637,6.636,6.6328,6.6317,6.6282,6.6259,6.6236,6.6202,6.62,6.6231,6.6174,6.6172,6.6187,6.624,6.6261,6.6266,6.6209,6.621,6.621,6.6244,0,6.659,6.6567,6.6528,6.6518,6.6502,6.6456,6.6446,6.6415,6.6386,6.6367,6.6334,6.6311,6.6281,6.6268,6.6264,6.6228,6.6241,6.6225,6.6198,6.6198,6.6211,6.6271,6.6292,6.6325,6.6247,6.6248,6.6248,0,6.6619,6.6594,6.6583,6.654,6.6532,6.6523,6.6493,6.6476,6.6441,6.642,6.6397,6.6363,6.6348,6.6321,6.6301,6.6291,6.6278,6.626,6.626,6.6255,6.6225,6.6269,6.6335,6.634,6.6254,6.6253,6.6253,0,6.6673,6.6636,6.6625,6.661,6.6559,6.6555,6.6533,6.6497,6.6482,6.6455,6.6445,6.6416,6.64,6.6379,6.6337,6.6321,6.6323,6.6291,6.6306,6.6307,6.6307,6.6307,6.6373,6.6299,6.6299,6.6298,6.6298,0,6.6709,6.6704,6.6649,6.6643,6.6637,6.6593,6.6589,6.6562,6.6532,6.652,6.6478,6.6467,6.6413,6.6397,6.6364,6.6354,6.6347,6.633,6.6321,6.6334,6.6336,6.6324,6.6321,6.63,6.6299,6.6299,6.6299,0,6.6767,6.6729,6.6716,6.667,6.6659,6.6657,6.6618,6.661,6.6581,6.6566,6.656,6.6513,6.6492,6.645,6.6415,6.6394,6.6391,6.6376,6.6404,6.6399,6.6416,6.6416,6.6476,6.6482,6.6404,6.6405,6.6406,0,6.6792,6.6788,6.6744,6.6735,6.6716,6.67,6.6685,6.6643,6.6629,6.6592,6.6589,6.6566,6.6544,6.6513,6.6475,6.645,6.6434,6.6457,6.6429,6.6444,6.6436,6.6437,6.6437,6.6463,6.6464,6.6465,6.6465,0,6.6842,6.6826,6.6807,6.6784,6.6769,6.6748,6.6724,6.6718,6.667,6.6657,6.6637,6.6621,6.6589,6.6566,6.6537,6.6513,6.6482,6.6475,6.6477,6.649,6.6507,6.65,6.6422,6.6473,6.6472,6.6472,6.6471,6.6471,6.6885,6.6881,6.6851,6.6833,6.6812,6.6792,6.6784,6.6756,6.6739,6.6711,6.6687,6.6669,6.6638,6.6595,6.6575,6.656,6.6545,6.6547,6.6548,6.655,6.6556,6.651,6.6554,6.6554,6.6554,6.6554,6.6553,0,6.6934,6.6914,6.6898,6.6869,6.6856,6.6831,6.6804,6.6794,6.678,6.6755,6.6736,6.6715,6.6694,6.6657,6.6633,6.6629,6.6614,6.6624,6.6624,6.662,6.657,6.6571,6.6637,6.6637,6.6637,6.6637,6.6637,6.6637,6.6958,6.6951,6.6932,6.6915,6.6894,6.6878,6.6866,6.6848,6.6828,6.6806,6.679,6.6767,6.6738,6.6712,6.6693,6.6682,6.6676,6.6691,6.6676,6.663,6.6623,6.6615,6.6616,6.669,6.669,6.6727,6.6727,6.6728]}]]